Location: Schommer Observatory
(40.5200°N, 74.4500°W)
Time: 17:38:17
(UTC-04:00)

Envisat - Pass Details

Date: 26 May 2018
Orbit: 764 x 766 km, 98.2° (Epoch: 19 August)

Event Time Altitude Azimuth Distance (km) Brightness Sun altitude
Rises 21:46:58 0° 219° (SW) 3,217 6.2 -14.3°
Reaches altitude 10° 21:51:04 10° 252° (WSW) 2,299 5.8 -14.9°
Maximum altitude 21:52:42 11° 271° (W) 2,200 6.0 -15.1°
Drops below altitude 10° 21:54:20 10° 290° (WNW) 2,305 6.5 -15.3°
Sets 21:58:29 0° 324° (NW) 3,239 8.1 -15.8°
